Time,TemperatureF,DewpointF,PressureIn,WindDirection,WindDirectionDegrees,WindSpeedMPH,WindSpeedGustMPH,Humidity,HourlyPrecipIn,Conditions,Clouds,dailyrainin,SolarRadiationWatts/m^2,SoftwareType,DateUTC
2013-09-09 00:03:00,77.7,74.0,29.93,West,268,0.0,-999.0,88,-99.99,,,0.00,0,weatherlink.com 1.10,2013-09-09 05:03:00,
2013-09-09 00:18:00,77.5,74.0,29.92,West,268,0.0,-999.0,88,-99.99,,,0.00,0,weatherlink.com 1.10,2013-09-09 05:18:00,
2013-09-09 00:33:00,77.3,74.0,29.93,West,268,0.0,-999.0,88,-99.99,,,0.00,0,weatherlink.com 1.10,2013-09-09 05:33:00,
2013-09-09 00:48:00,77.0,73.0,29.93,West,268,0.0,-999.0,88,-99.99,,,0.00,0,weatherlink.com 1.10,2013-09-09 05:48:00,
2013-09-09 01:03:00,76.9,74.0,29.93,West,268,0.0,-999.0,89,-99.99,,,0.00,0,weatherlink.com 1.10,2013-09-09 06:03:00,
2013-09-09 01:18:00,76.7,74.0,29.92,West,268,0.0,-999.0,90,-99.99,,,0.00,0,weatherlink.com 1.10,2013-09-09 06:18:00,
2013-09-09 01:33:00,76.5,74.0,29.92,West,268,0.0,-999.0,90,-99.99,,,0.00,0,weatherlink.com 1.10,2013-09-09 06:33:00,
2013-09-09 01:48:00,76.2,73.0,29.92,West,268,0.0,-999.0,90,-99.99,,,0.00,0,weatherlink.com 1.10,2013-09-09 06:48:00,
2013-09-09 02:03:00,75.9,73.0,29.92,West,268,0.0,-999.0,90,-99.99,,,0.00,0,weatherlink.com 1.10,2013-09-09 07:03:00,
2013-09-09 02:18:00,75.6,73.0,29.92,West,268,0.0,-999.0,90,-99.99,,,0.00,0,weatherlink.com 1.10,2013-09-09 07:18:00,
2013-09-09 02:33:00,75.4,73.0,29.92,West,268,0.0,-999.0,91,-99.99,,,0.00,0,weatherlink.com 1.10,2013-09-09 07:33:00,
2013-09-09 02:48:00,75.2,73.0,29.92,West,268,0.0,-999.0,91,-99.99,,,0.00,0,weatherlink.com 1.10,2013-09-09 07:48:00,
2013-09-09 03:03:00,74.9,72.0,29.92,West,268,0.0,-999.0,91,-99.99,,,0.00,0,weatherlink.com 1.10,2013-09-09 08:03:00,
2013-09-09 03:18:00,74.6,72.0,29.93,West,268,0.0,-999.0,91,-99.99,,,0.00,0,weatherlink.com 1.10,2013-09-09 08:18:00,
2013-09-09 03:33:00,74.4,72.0,29.93,West,268,0.0,-999.0,91,-99.99,,,0.00,0,weatherlink.com 1.10,2013-09-09 08:33:00,
2013-09-09 03:48:00,74.1,71.0,29.93,West,268,0.0,-999.0,91,-99.99,,,0.00,0,weatherlink.com 1.10,2013-09-09 08:48:00,
2013-09-09 04:03:00,73.9,71.0,29.93,West,268,0.0,-999.0,91,-99.99,,,0.00,0,weatherlink.com 1.10,2013-09-09 09:03:00,
2013-09-09 04:18:00,73.7,71.0,29.93,West,268,0.0,-999.0,91,-99.99,,,0.00,0,weatherlink.com 1.10,2013-09-09 09:18:00,
2013-09-09 04:33:00,73.5,71.0,29.93,West,268,0.0,-999.0,92,-99.99,,,0.00,0,weatherlink.com 1.10,2013-09-09 09:33:00,
2013-09-09 04:49:00,73.3,71.0,29.94,West,268,0.0,-999.0,92,-99.99,,,0.00,0,weatherlink.com 1.10,2013-09-09 09:49:00,
2013-09-09 05:04:00,73.0,71.0,29.94,West,268,0.0,-999.0,92,-99.99,,,0.00,0,weatherlink.com 1.10,2013-09-09 10:04:00,
2013-09-09 05:19:00,72.8,70.0,29.94,West,268,0.0,-999.0,92,-99.99,,,0.00,0,weatherlink.com 1.10,2013-09-09 10:19:00,
2013-09-09 05:34:00,72.6,70.0,29.94,West,268,0.0,-999.0,92,-99.99,,,0.00,0,weatherlink.com 1.10,2013-09-09 10:34:00,
2013-09-09 05:49:00,72.5,70.0,29.95,West,268,0.0,-999.0,92,-99.99,,,0.00,0,weatherlink.com 1.10,2013-09-09 10:49:00,
2013-09-09 06:04:00,72.4,70.0,29.95,West,268,0.0,-999.0,92,-99.99,,,0.00,0,weatherlink.com 1.10,2013-09-09 11:04:00,
2013-09-09 06:19:00,72.1,70.0,29.95,West,268,0.0,-999.0,92,-99.99,,,0.00,0,weatherlink.com 1.10,2013-09-09 11:19:00,
2013-09-09 06:34:00,71.9,70.0,29.96,West,268,0.0,-999.0,92,-99.99,,,0.00,0,weatherlink.com 1.10,2013-09-09 11:34:00,
2013-09-09 06:49:00,71.7,70.0,29.96,West,268,0.0,-999.0,93,-99.99,,,0.00,0,weatherlink.com 1.10,2013-09-09 11:49:00,
2013-09-09 07:04:00,71.8,70.0,29.96,West,268,0.0,-999.0,93,-99.99,,,0.00,11,weatherlink.com 1.10,2013-09-09 12:04:00,
2013-09-09 07:19:00,71.8,70.0,29.97,West,268,0.0,-999.0,94,-99.99,,,0.00,11,weatherlink.com 1.10,2013-09-09 12:19:00,
2013-09-09 07:34:00,72.0,70.0,29.97,West,268,0.0,-999.0,94,-99.99,,,0.00,16,weatherlink.com 1.10,2013-09-09 12:34:00,
2013-09-09 07:49:00,72.1,70.0,29.98,West,268,0.0,-999.0,94,-99.99,,,0.00,21,weatherlink.com 1.10,2013-09-09 12:49:00,
2013-09-09 08:04:00,72.1,70.0,29.98,West,268,0.0,-999.0,94,-99.99,,,0.00,33,weatherlink.com 1.10,2013-09-09 13:04:00,
2013-09-09 08:19:00,72.4,71.0,29.98,West,268,0.0,-999.0,95,-99.99,,,0.00,37,weatherlink.com 1.10,2013-09-09 13:19:00,
2013-09-09 08:34:00,72.9,71.0,29.98,West,268,0.0,-999.0,95,-99.99,,,0.00,54,weatherlink.com 1.10,2013-09-09 13:34:00,
2013-09-09 08:49:00,73.6,72.0,29.99,West,268,0.0,-999.0,95,-99.99,,,0.00,70,weatherlink.com 1.10,2013-09-09 13:49:00,
2013-09-09 09:04:00,74.4,73.0,29.99,West,268,0.0,-999.0,95,-99.99,,,0.00,65,weatherlink.com 1.10,2013-09-09 14:04:00,
2013-09-09 09:19:00,74.9,73.0,29.99,West,268,0.0,-999.0,95,-99.99,,,0.00,90,weatherlink.com 1.10,2013-09-09 14:19:00,
2013-09-09 09:34:00,75.7,74.0,30.00,West,268,0.0,-999.0,95,-99.99,,,0.00,91,weatherlink.com 1.10,2013-09-09 14:34:00,
2013-09-09 09:49:00,76.6,75.0,30.00,West,268,0.0,-999.0,95,-99.99,,,0.00,135,weatherlink.com 1.10,2013-09-09 14:49:00,
2013-09-09 10:04:00,77.4,76.0,30.00,West,268,0.0,-999.0,94,-99.99,,,0.00,62,weatherlink.com 1.10,2013-09-09 15:04:00,
2013-09-09 10:19:00,77.9,75.0,30.01,West,268,0.0,-999.0,91,-99.99,,,0.00,46,weatherlink.com 1.10,2013-09-09 15:19:00,
2013-09-09 10:34:00,78.2,74.0,30.01,West,268,0.0,-999.0,88,-99.99,,,0.00,47,weatherlink.com 1.10,2013-09-09 15:34:00,
2013-09-09 10:49:00,78.5,75.0,30.01,West,268,0.0,-999.0,88,-99.99,,,0.00,62,weatherlink.com 1.10,2013-09-09 15:49:00,
2013-09-09 11:04:00,78.7,75.0,30.02,West,268,0.0,-999.0,87,-99.99,,,0.00,58,weatherlink.com 1.10,2013-09-09 16:04:00,
2013-09-09 11:19:00,78.7,74.0,30.02,West,268,0.0,-999.0,86,-99.99,,,0.00,74,weatherlink.com 1.10,2013-09-09 16:19:00,
2013-09-09 11:34:00,78.9,74.0,30.02,West,268,0.0,-999.0,86,-99.99,,,0.00,67,weatherlink.com 1.10,2013-09-09 16:34:00,
2013-09-09 11:49:00,78.8,73.0,30.01,West,268,0.0,-999.0,83,-99.99,,,0.00,83,weatherlink.com 1.10,2013-09-09 16:49:00,
2013-09-09 12:04:00,78.9,73.0,30.01,West,268,0.0,-999.0,83,-99.99,,,0.00,77,weatherlink.com 1.10,2013-09-09 17:04:00,
2013-09-09 12:19:00,79.1,73.0,30.02,West,268,0.0,-999.0,81,-99.99,,,0.00,193,weatherlink.com 1.10,2013-09-09 17:19:00,
2013-09-09 12:34:00,82.7,75.0,30.01,West,268,0.0,-999.0,77,-99.99,,,0.00,802,weatherlink.com 1.10,2013-09-09 17:34:00,
2013-09-09 12:49:00,84.5,75.0,30.01,West,268,0.0,-999.0,74,-99.99,,,0.00,429,weatherlink.com 1.10,2013-09-09 17:49:00,
2013-09-09 13:04:00,84.9,76.0,30.00,East,91,0.0,-999.0,75,-99.99,,,0.00,401,weatherlink.com 1.10,2013-09-09 18:04:00,
2013-09-09 13:19:00,84.1,76.0,30.00,East,91,0.0,-999.0,76,-99.99,,,0.00,295,weatherlink.com 1.10,2013-09-09 18:19:00,
2013-09-09 13:34:00,83.9,76.0,29.99,East,91,0.0,-999.0,77,-99.99,,,0.00,218,weatherlink.com 1.10,2013-09-09 18:34:00,
2013-09-09 13:49:00,84.1,76.0,29.99,East,91,0.0,-999.0,76,-99.99,,,0.00,295,weatherlink.com 1.10,2013-09-09 18:49:00,
2013-09-09 14:04:00,85.6,76.0,29.98,East,94,0.0,-999.0,74,-99.99,,,0.00,445,weatherlink.com 1.10,2013-09-09 19:04:00,
2013-09-09 14:19:00,87.2,76.0,29.98,East,94,0.0,-999.0,70,-99.99,,,0.00,708,weatherlink.com 1.10,2013-09-09 19:19:00,
2013-09-09 14:35:00,88.4,75.0,29.98,ENE,59,0.0,-999.0,65,-99.99,,,0.00,571,weatherlink.com 1.10,2013-09-09 19:35:00,
2013-09-09 14:50:00,88.1,76.0,29.97,ENE,59,0.0,-999.0,67,-99.99,,,0.00,313,weatherlink.com 1.10,2013-09-09 19:50:00,
2013-09-09 15:05:00,89.1,76.0,29.97,ENE,59,0.0,-999.0,66,-99.99,,,0.00,612,weatherlink.com 1.10,2013-09-09 20:05:00,
2013-09-09 15:20:00,89.4,76.0,29.96,ENE,59,0.0,-999.0,65,-99.99,,,0.00,580,weatherlink.com 1.10,2013-09-09 20:20:00,
2013-09-09 15:35:00,89.8,77.0,29.96,ENE,59,0.0,-999.0,65,-99.99,,,0.00,601,weatherlink.com 1.10,2013-09-09 20:35:00,
2013-09-09 15:50:00,89.8,77.0,29.96,ENE,59,0.0,-999.0,65,-99.99,,,0.00,527,weatherlink.com 1.10,2013-09-09 20:50:00,
2013-09-09 16:05:00,89.7,76.0,29.95,ENE,59,0.0,-999.0,65,-99.99,,,0.00,489,weatherlink.com 1.10,2013-09-09 21:05:00,
2013-09-09 16:20:00,89.4,77.0,29.95,ENE,59,0.0,-999.0,66,-99.99,,,0.00,179,weatherlink.com 1.10,2013-09-09 21:20:00,
2013-09-09 16:35:00,88.2,78.0,29.95,ENE,59,0.0,-999.0,71,-99.99,,,0.00,98,weatherlink.com 1.10,2013-09-09 21:35:00,
2013-09-09 16:50:00,88.2,77.0,29.95,ENE,59,0.0,-999.0,70,-99.99,,,0.00,81,weatherlink.com 1.10,2013-09-09 21:50:00,
2013-09-09 17:05:00,87.4,77.0,29.94,ENE,59,0.0,-999.0,71,-99.99,,,0.00,49,weatherlink.com 1.10,2013-09-09 22:05:00,
2013-09-09 17:20:00,87.0,77.0,29.94,ENE,59,0.0,-999.0,73,-99.99,,,0.00,44,weatherlink.com 1.10,2013-09-09 22:20:00,
2013-09-09 17:35:00,87.1,78.0,29.94,ENE,59,0.0,-999.0,74,-99.99,,,0.00,37,weatherlink.com 1.10,2013-09-09 22:35:00,
2013-09-09 17:50:00,87.1,78.0,29.94,ENE,59,0.0,-999.0,75,-99.99,,,0.00,30,weatherlink.com 1.10,2013-09-09 22:50:00,
2013-09-09 18:05:00,86.8,78.0,29.94,ENE,59,0.0,-999.0,75,-99.99,,,0.00,25,weatherlink.com 1.10,2013-09-09 23:05:00,
2013-09-09 18:20:00,86.3,78.0,29.94,ENE,59,0.0,-999.0,75,-99.99,,,0.00,19,weatherlink.com 1.10,2013-09-09 23:20:00,
2013-09-09 18:35:00,85.9,77.0,29.94,ENE,59,0.0,-999.0,75,-99.99,,,0.00,12,weatherlink.com 1.10,2013-09-09 23:35:00,
2013-09-09 18:50:00,85.4,77.0,29.94,ENE,59,0.0,-999.0,75,-99.99,,,0.00,9,weatherlink.com 1.10,2013-09-09 23:50:00,
2013-09-09 19:05:00,84.9,77.0,29.94,ENE,59,0.0,-999.0,77,-99.99,,,0.00,0,weatherlink.com 1.10,2013-09-10 00:05:00,
2013-09-09 19:20:00,84.5,77.0,29.95,SSW,195,0.0,-999.0,79,-99.99,,,0.00,0,weatherlink.com 1.10,2013-09-10 00:20:00,
2013-09-09 19:35:00,84.0,77.0,29.95,SSW,195,0.0,-999.0,80,-99.99,,,0.00,0,weatherlink.com 1.10,2013-09-10 00:35:00,
2013-09-09 19:50:00,83.5,77.0,29.95,SSW,195,0.0,-999.0,81,-99.99,,,0.00,0,weatherlink.com 1.10,2013-09-10 00:50:00,
2013-09-09 20:05:00,82.9,77.0,29.96,SSW,195,0.0,-999.0,81,-99.99,,,0.00,0,weatherlink.com 1.10,2013-09-10 01:05:00,
2013-09-09 20:20:00,82.3,76.0,29.96,SSW,195,0.0,-999.0,82,-99.99,,,0.00,0,weatherlink.com 1.10,2013-09-10 01:20:00,
2013-09-09 20:35:00,81.6,76.0,29.97,SSW,196,0.0,-999.0,82,-99.99,,,0.00,0,weatherlink.com 1.10,2013-09-10 01:35:00,
2013-09-09 20:50:00,81.0,75.0,29.97,SSW,196,0.0,-999.0,83,-99.99,,,0.00,0,weatherlink.com 1.10,2013-09-10 01:50:00,
2013-09-09 21:05:00,80.4,75.0,29.98,SSW,194,0.0,-999.0,84,-99.99,,,0.00,0,weatherlink.com 1.10,2013-09-10 02:05:00,
2013-09-09 21:20:00,79.8,75.0,29.98,SSW,194,0.0,-999.0,84,-99.99,,,0.00,0,weatherlink.com 1.10,2013-09-10 02:20:00,
2013-09-09 21:35:00,79.3,75.0,29.99,SSW,194,0.0,-999.0,85,-99.99,,,0.00,0,weatherlink.com 1.10,2013-09-10 02:35:00,
2013-09-09 21:50:00,78.9,75.0,29.99,SSW,194,0.0,-999.0,87,-99.99,,,0.00,0,weatherlink.com 1.10,2013-09-10 02:50:00,
2013-09-09 22:05:00,78.6,75.0,29.99,SSW,194,0.0,-999.0,87,-99.99,,,0.00,0,weatherlink.com 1.10,2013-09-10 03:05:00,
2013-09-09 22:20:00,78.1,74.0,30.00,SSW,194,0.0,-999.0,87,-99.99,,,0.00,0,weatherlink.com 1.10,2013-09-10 03:20:00,
2013-09-09 22:35:00,77.7,74.0,30.00,SSW,194,0.0,-999.0,87,-99.99,,,0.00,0,weatherlink.com 1.10,2013-09-10 03:35:00,
2013-09-09 22:50:00,77.4,74.0,30.00,SSW,194,0.0,-999.0,88,-99.99,,,0.00,0,weatherlink.com 1.10,2013-09-10 03:50:00,
2013-09-09 23:05:00,77.1,73.0,30.00,SSW,194,0.0,-999.0,88,-99.99,,,0.00,0,weatherlink.com 1.10,2013-09-10 04:05:00,
2013-09-09 23:20:00,76.8,73.0,30.00,SSW,194,0.0,-999.0,89,-99.99,,,0.00,0,weatherlink.com 1.10,2013-09-10 04:20:00,
2013-09-09 23:35:00,76.5,73.0,30.00,SSW,194,0.0,-999.0,89,-99.99,,,0.00,0,weatherlink.com 1.10,2013-09-10 04:35:00,
2013-09-09 23:50:00,76.1,73.0,30.00,SSW,194,0.0,-999.0,89,-99.99,,,0.00,0,weatherlink.com 1.10,2013-09-10 04:50:00,